Wetbulb
45.25 45.37 45.61 45.76 46.04 46.04 46.31 46.48 46.44 46.86 47.46 48.32 49.17 49.44 50.38 50.77 50.95 48.63 43.95 46.31 44.96 41.85 42.19 44.56 44.85 42.80 44.08 42.96 39.11 42.08 41.38 42.13 41.95 36.63 37.29 37.34 36.91 39.89 38.12 41.17 38.60 37.42 35.83 31.96 36.67 33.06 28.54 47.12 46.80 41.47 42.68 45.49 48.06 48.20
44.98 44.89 45.03 45.29 45.53 45.71 46.17 46.53 46.56 47.07 47.72 47.65 48.56 49.16 49.72 50.48 50.54 50.03 39.73 44.49 45.45 43.25 42.38 45.48 46.30 47.29 48.37 47.35 42.90 42.50 41.30 41.39 44.28 39.04 39.95 41.24 39.34 39.92 38.27 34.01 44.57 38.16 40.99 39.11 38.78 39.16 44.37 46.32 45.98 46.46 46.55 45.57 44.88 45.10
44.84 44.88 44.93 44.93 45.08 45.29 45.81 46.52 46.66 46.79 47.23 47.84 48.38 49.11 49.47 50.03 50.46 49.74 44.05 44.14 44.07 40.40 40.80 42.31 43.18 48.38 50.14 48.87 47.74 40.46 41.83 43.97 43.87 47.83 43.50 42.42 37.86 40.78 35.33 37.21 40.57 44.52 46.05 40.69 40.08 43.03 43.58 44.16 45.44 46.32 46.35 44.89 45.66 45.89
44.69 44.74 44.83 44.71 44.89 45.31 46.35 46.79 46.84 47.01 47.27 48.02 48.44 49.28 49.64 50.24 50.31 50.06 42.86 44.97 43.27 40.80 39.06 39.89 48.30 45.67 50.21 49.16 48.84 47.00 46.19 45.45 46.43 46.44 43.19 41.47 38.93 42.04 38.00 39.76 39.59 42.16 44.04 41.41 40.52 42.69 43.84 44.63 45.42 45.24 45.55 45.79 45.46 45.33
44.45 44.39 44.47 44.54 45.08 45.43 46.70 47.25 47.24 47.67 47.90 48.21 48.51 48.89 49.60 49.92 50.16 48.54 45.36 46.32 44.04 40.69 36.54 37.61 43.16 46.17 47.35 47.82 47.23 46.79 45.57 42.18 39.73 39.78 38.90 38.28 40.67 39.61 38.78 39.24 38.60 42.79 40.56 38.25 37.65 42.04 42.03 42.18 45.17 46.23 44.46 44.05 44.66 43.70
44.03 43.82 44.32 44.71 45.21 45.60 46.28 47.13 47.57 48.03 47.99 48.29 49.10 49.31 49.45 50.02 49.96 43.69 40.40 44.66 44.78 43.60 41.58 34.37 42.20 44.35 46.65 46.89 45.82 44.93 45.22 41.48 40.16 37.74 36.43 40.31 42.51 39.86 35.36 34.48 41.75 43.88 45.03 44.19 42.04 45.76 44.83 45.20 45.89 45.12 42.95 43.16 43.75 42.47
43.69 43.86 44.23 44.68 45.16 45.59 46.09 47.05 47.62 48.42 48.67 48.91 49.29 49.62 49.79 49.74 44.33 40.48 38.65 42.46 46.94 43.76 39.99 35.29 35.97 42.97 45.19 44.24 43.35 42.55 42.65 40.53 39.80 38.04 37.62 38.44 39.57 39.75 37.89 35.10 40.72 42.96 44.55 45.29 46.61 45.60 42.16 43.61 41.69 44.06 44.25 41.53 41.55 39.89
43.81 44.01 44.18 44.59 45.09 45.54 46.48 46.74 47.30 48.35 48.66 49.21 49.34 49.82 50.13 49.82 47.65 43.28 45.72 47.96 45.86 40.69 41.49 32.10 35.23 38.51 43.49 38.87 38.08 41.25 39.28 38.87 38.72 36.80 37.96 37.53 39.48 38.06 36.09 41.19 41.93 42.71 42.57 42.92 43.38 43.70 41.96 41.95 41.46 41.23 41.88 40.46 38.40 36.91
43.60 43.87 44.06 44.52 45.11 45.57 46.29 46.64 47.21 48.18 48.43 48.95 49.58 50.44 46.65 44.27 40.27 42.02 49.87 50.25 43.69 42.18 35.87 38.14 33.12 32.32 41.50 38.42 39.33 38.64 37.91 34.05 37.63 34.76 36.17 38.03 35.75 35.55 40.39 39.31 40.72 42.14 40.83 39.58 40.77 41.02 40.38 38.81 38.51 38.36 38.09 37.61 36.27 35.03
43.25 43.67 44.06 44.66 45.17 45.41 45.31 46.27 47.08 47.99 48.44 49.17 46.59 41.90 37.18 41.23 50.54 49.49 44.78 41.35 41.05 40.38 38.74 35.08 39.51 37.46 40.37 37.34 34.52 36.16 36.69 33.04 30.34 34.04 38.05 35.86 36.00 41.16 41.90 41.67 39.49 39.82 39.85 39.60 37.21 35.67 36.78 36.28 35.83 35.49 35.42 35.76 35.19 34.43
43.38 43.81 44.13 44.81 45.09 45.29 45.52 46.45 47.15 48.07 47.40 40.71 37.22 37.41 41.85 47.84 42.87 40.37 35.33 34.54 35.32 33.40 36.64 36.31 38.24 35.50 40.33 35.26 34.85 36.63 31.10 34.10 28.00 31.88 33.61 33.28 34.56 39.84 38.98 38.34 39.65 39.92 38.98 37.87 37.14 36.09 35.76 35.55 34.66 34.18 33.98 34.55 33.72 33.15
43.60 43.94 44.38 44.73 45.18 45.75 46.04 46.71 47.41 45.10 40.70 41.69 42.65 43.95 41.96 41.34 37.28 34.75 32.39 36.03 34.25 32.26 37.27 35.18 36.65 37.98 39.01 39.72 35.47 35.66 33.65 35.22 29.42 35.65 31.99 32.20 37.58 37.78 39.47 38.32 39.32 39.09 38.06 36.74 36.44 34.86 34.50 34.53 34.13 33.32 32.83 32.18 31.49 32.14
43.84 44.11 44.33 44.92 45.63 45.47 45.87 46.82 47.53 48.14 46.90 46.32 43.79 41.38 37.78 35.90 26.88 32.54 28.69 33.35 32.55 35.25 37.00 36.34 34.01 37.51 38.70 38.22 35.15 34.40 31.43 28.95 36.45 31.68 33.55 34.63 38.21 37.13 37.41 38.66 38.60 38.63 37.75 36.57 35.65 34.96 34.20 33.51 33.56 32.54 31.43 33.03 32.55 30.69
43.90 44.71 45.23 45.49 45.78 45.94 46.43 47.12 48.21 46.42 44.83 40.49 36.00 25.42 34.50 35.87 33.46 31.73 32.47 34.47 38.06 39.16 40.26 39.36 35.08 35.45 37.16 35.01 35.25 31.66 33.58 34.05 27.54 29.67 32.40 36.07 36.27 36.39 38.82 39.66 38.54 36.71 36.24 35.38 34.63 34.18 32.64 31.91 30.79 31.22 30.87 32.00 31.35 29.78
45.00 45.54 46.29 46.40 47.32 47.23 47.39 47.93 47.68 43.36 41.70 37.94 35.82 30.32 33.95 37.17 37.39 36.83 37.51 36.67 41.26 39.60 40.20 37.52 35.56 36.37 33.91 36.68 36.25 32.95 30.86 28.81 31.36 30.78 36.84 38.97 35.96 37.79 37.76 38.04 37.08 36.00 34.95 34.14 33.98 32.97 32.25 31.49 30.45 29.77 30.98 31.15 30.80 29.46
46.06 46.36 45.35 47.13 47.64 47.51 46.88 45.59 43.43 44.02 43.98 40.90 38.72 33.28 38.70 38.11 39.28 37.59 38.58 36.41 39.11 37.69 40.87 38.54 36.18 33.44 32.43 35.85 34.82 31.13 28.22 28.32 33.24 38.18 40.33 36.35 36.07 37.39 36.97 37.94 37.23 36.45 34.76 33.44 32.99 32.97 32.24 30.89 29.43 28.98 29.98 28.93 29.03 29.20
46.08 41.34 47.05 46.76 47.20 46.81 46.50 41.90 44.90 42.71 39.87 37.63 33.81 37.42 36.55 36.94 38.03 39.07 40.53 38.51 41.14 38.76 36.82 35.86 33.20 34.06 35.15 30.99 30.02 35.06 32.05 36.05 39.57 40.71 39.86 36.81 37.60 37.01 37.09 38.54 37.78 36.57 34.46 33.29 32.52 32.04 31.11 31.19 30.83 29.53 28.46 30.08 30.51 30.37
43.01 45.90 47.90 47.14 45.16 43.49 43.26 42.41 41.68 39.70 35.26 35.29 33.28 37.27 40.62 41.58 38.43 39.91 42.17 40.48 39.78 41.09 40.30 37.26 36.81 31.98 32.47 31.68 32.92 37.24 39.77 41.71 42.24 41.91 39.12 39.52 37.86 37.88 38.63 37.70 37.95 37.38 35.33 34.58 33.76 33.15 32.46 32.09 33.10 32.95 32.45 31.73 30.89 30.75
44.05 45.04 46.46 46.32 44.28 41.59 41.14 41.99 41.99 35.69 36.14 39.62 40.26 40.71 41.09 41.46 41.12 42.61 43.43 44.60 43.41 44.53 41.14 38.92 35.47 34.16 34.36 37.20 37.79 40.21 41.39 40.01 39.15 40.62 40.06 39.30 39.18 38.33 38.39 38.79 38.95 37.43 35.56 34.40 33.60 32.44 32.76 33.98 34.06 34.78 33.71 32.80 30.75 31.34
46.04 45.71 45.71 46.03 45.24 40.65 38.32 39.43 42.97 36.86 34.31 39.00 38.66 39.47 39.15 40.00 42.03 42.39 42.85 41.79 39.86 37.52 34.81 33.43 34.27 36.20 36.91 39.08 40.88 40.80 42.68 44.26 38.52 35.24 35.34 38.10 38.46 37.94 38.34 38.30 37.63 37.35 36.68 35.71 34.38 34.32 34.39 34.37 35.21 35.43 35.18 34.04 32.98 32.24
43.72 43.35 44.99 42.71 41.68 42.18 40.16 37.36 38.45 38.90 36.52 35.53 39.66 37.14 36.85 40.85 41.04 39.89 40.56 40.96 35.57 36.37 35.27 37.66 38.11 39.42 41.08 41.64 41.87 42.20 41.92 44.61 42.00 38.54 37.75 35.99 37.47 37.96 37.54 38.25 37.79 37.37 35.86 35.46 34.48 34.28 33.88 33.02 33.81 34.50 34.53 34.27 35.04 34.57
43.42 45.68 42.64 43.09 39.29 38.97 37.54 38.09 36.86 38.81 34.99 35.60 36.10 36.85 35.43 35.84 37.35 39.20 40.37 35.66 36.56 38.42 40.06 40.19 40.81 41.59 42.87 43.05 43.71 44.65 45.33 45.41 44.19 41.72 39.37 38.73 36.93 37.14 37.57 38.81 38.06 36.79 36.38 36.26 35.76 34.87 34.53 34.97 35.21 35.08 34.17 33.66 33.90 34.97
43.46 43.35 42.16 40.12 36.28 35.92 30.99 39.93 36.54 37.52 33.37 34.33 37.08 35.73 35.73 36.63 39.37 42.48 35.42 37.33 38.49 40.66 41.51 39.07 42.82 43.45 42.80 43.39 45.62 44.78 45.51 44.70 43.00 40.70 40.02 39.36 39.05 39.07 38.41 39.29 39.78 36.82 35.10 35.67 37.30 36.23 35.32 34.50 34.44 34.76 34.58 34.18 33.68 33.96
44.68 40.96 37.94 36.72 35.33 31.83 38.45 35.05 35.51 35.15 35.94 33.50 34.26 35.62 37.28 39.03 43.71 37.63 34.41 36.08 38.18 40.29 40.00 40.33 39.16 38.35 38.75 40.13 38.97 41.58 42.68 43.97 42.11 41.48 42.22 39.57 38.75 38.36 38.57 38.53 39.40 38.75 38.19 37.53 36.68 35.91 35.16 34.87 34.75 34.72 34.65 34.64 33.63 33.06
37.28 31.06 34.55 28.63 35.91 34.44 33.41 34.36 35.57 33.49 32.45 34.95 35.76 36.93 38.18 38.39 35.06 34.31 34.03 35.48 37.40 37.62 38.60 39.17 37.75 35.97 35.92 37.18 39.41 39.72 41.85 40.88 39.58 39.67 41.62 42.72 40.06 39.00 37.78 37.97 38.21 38.61 38.95 36.55 35.55 35.41 35.21 35.48 35.19 34.86 35.10 35.08 33.67 33.36
31.66 33.74 30.10 35.73 34.62 33.33 33.17 33.31 35.62 36.35 37.23 34.72 36.17 38.63 40.52 38.69 34.28 31.55 33.69 36.23 36.70 36.85 35.56 34.03 33.22 33.55 36.50 37.86 37.04 38.68 39.99 39.76 40.09 39.85 41.44 42.07 42.31 39.31 37.84 36.76 36.28 35.87 39.05 38.28 36.84 35.83 35.95 36.25 35.54 35.82 35.64 34.76 32.84 34.50
29.28 29.55 35.61 39.64 38.91 38.63 36.13 37.16 37.44 36.60 35.91 35.23 35.36 34.78 35.88 32.87 30.89 33.00 36.37 37.60 37.33 37.73 38.45 37.98 37.01 37.00 36.68 37.31 37.98 37.28 38.93 40.50 39.72 40.54 42.21 42.76 43.58 43.62 41.24 39.04 37.46 39.30 40.39 39.44 38.90 38.56 37.15 36.86 36.99 37.11 36.32 35.51 35.52 34.91
35.71 38.02 35.90 38.53 37.39 37.93 35.94 37.11 36.27 34.01 35.08 36.22 37.66 34.16 33.80 32.68 31.98 35.75 37.19 37.78 38.01 35.84 36.14 38.65 39.28 38.84 38.27 37.62 38.26 38.22 36.68 38.59 39.93 42.88 44.57 44.74 45.23 45.06 44.98 44.13 43.28 35.37 41.71 41.75 40.54 39.53 38.67 38.11 37.08 36.54 35.70 34.98 35.08 35.76
33.89 35.84 36.25 34.19 36.44 38.22 38.08 36.64 34.86 36.54 36.77 35.13 34.79 34.02 34.74 36.32 36.97 33.45 36.66 34.69 34.59 33.86 32.55 32.84 35.95 37.48 38.28 38.22 35.87 38.34 38.55 38.60 39.74 38.99 37.51 36.55 38.03 38.73 40.27 41.47 41.06 42.22 41.66 39.40 34.24 37.78 39.68 38.62 37.76 37.05 36.80 36.01 35.91 36.36
34.10 36.08 34.02 36.00 37.19 36.66 38.30 37.42 35.64 38.75 38.01 36.87 37.26 35.83 35.43 33.72 33.72 35.71 33.93 32.44 30.51 28.77 31.26 34.23 33.26 33.77 32.46 33.41 33.13 34.99 37.54 36.78 37.23 36.73 35.53 35.09 35.25 38.38 38.95 38.61 39.03 40.11 40.50 39.36 38.40 36.42 31.39 35.44 33.31 36.79 36.80 35.51 34.53 33.39
36.65 37.59 35.41 37.57 37.01 38.13 38.55 40.15 40.43 39.22 39.54 38.90 38.60 35.43 34.85 35.33 34.27 32.94 32.23 31.77 29.76 29.93 31.94 33.25 33.30 33.45 32.79 32.35 32.22 31.76 32.31 35.06 35.79 36.43 35.59 35.35 36.24 36.93 37.51 37.84 37.77 40.29 39.82 39.65 38.49 37.73 36.63 36.35 37.07 36.67 36.27 35.28 35.03 34.07
35.20 36.24 35.75 35.08 35.84 37.76 37.35 36.89 37.33 34.77 37.36 36.07 34.77 36.29 35.49 34.19 32.02 32.45 33.49 33.34 33.82 32.18 31.03 31.84 31.46 32.18 34.02 34.69 34.84 34.38 32.93 34.55 35.22 35.55 35.12 34.62 34.72 36.28 37.27 36.34 38.31 40.17 41.26 40.24 39.29 38.65 38.16 37.68 37.26 37.20 36.53 36.49 36.42 36.30
36.58 37.78 37.70 36.06 33.87 32.09 33.24 36.15 35.26 31.83 33.09 30.00 29.98 33.66 32.95 32.44 31.22 31.55 33.81 32.25 31.28 31.50 31.22 32.01 33.29 34.87 35.46 35.28 34.24 33.90 33.45 34.49 34.56 32.39 32.36 32.46 32.59 33.42 34.94 36.96 38.27 40.52 41.57 41.12 40.48 39.63 38.37 37.71 37.31 37.54 37.07 36.56 36.07 34.51
MSLP
1025.42 1025.02 1024.59 1024.14 1023.71 1023.26 1022.76 1022.34 1021.82 1021.16 1020.46 1019.74 1018.85 1018.20 1017.60 1017.04 1016.48 1015.82 1014.98 1014.24 1014.23 1013.52 1011.72 1010.70 1010.09 1009.49 1008.50 1007.78 1007.29 1005.80 1004.67 1004.04 1004.18 1004.33 1004.55 1004.52 1004.21 1004.41 1004.91 1004.77 1005.12 1005.55 1006.06 1007.03 1007.57 1007.95 1007.58 1005.55 1005.24 1005.79 1006.38 1006.39 1006.20 1006.56
1025.05 1024.72 1024.31 1023.84 1023.35 1023.01 1022.60 1022.12 1021.54 1020.98 1020.28 1019.59 1018.85 1018.12 1017.56 1016.95 1016.47 1015.82 1015.47 1014.00 1013.74 1013.67 1011.53 1010.11 1009.30 1008.78 1008.41 1007.91 1007.70 1006.22 1005.81 1005.07 1004.71 1004.52 1004.88 1004.66 1004.57 1004.85 1005.00 1005.24 1005.41 1005.68 1005.74 1006.01 1006.89 1007.80 1007.28 1006.17 1006.29 1006.80 1006.56 1006.83 1007.41 1007.47
1024.80 1024.50 1024.06 1023.67 1023.26 1022.79 1022.18 1021.53 1021.02 1020.45 1019.87 1019.28 1018.62 1017.95 1017.36 1016.78 1016.31 1016.00 1015.45 1014.52 1013.75 1013.29 1011.70 1010.42 1009.21 1008.17 1007.41 1007.19 1007.03 1006.92 1005.38 1004.98 1005.06 1005.00 1005.38 1005.40 1005.36 1005.63 1005.96 1005.98 1005.48 1005.66 1005.33 1006.11 1006.12 1008.09 1007.54 1007.90 1007.87 1007.86 1007.86 1008.42 1008.83 1009.19
1024.35 1024.12 1023.81 1023.30 1022.91 1022.36 1021.84 1021.10 1020.67 1020.20 1019.60 1018.87 1018.10 1017.49 1016.95 1016.38 1015.90 1015.59 1015.36 1014.42 1014.46 1014.04 1013.06 1010.86 1008.98 1008.51 1007.77 1007.01 1006.55 1006.25 1005.66 1004.98 1005.03 1005.21 1005.87 1006.02 1006.17 1006.25 1006.71 1006.60 1006.42 1006.47 1006.39 1007.10 1008.26 1008.59 1008.53 1009.28 1009.27 1009.33 1009.56 1009.80 1010.29 1010.88
1024.03 1023.63 1023.42 1022.86 1022.30 1021.88 1021.38 1020.73 1020.23 1019.68 1018.99 1018.24 1017.60 1016.95 1016.41 1015.89 1015.30 1014.82 1014.68 1014.21 1013.98 1014.35 1013.76 1011.96 1009.98 1008.42 1007.75 1007.29 1006.85 1006.16 1005.66 1005.65 1006.01 1006.34 1006.83 1007.06 1006.51 1007.10 1007.45 1007.41 1008.15 1007.68 1007.84 1008.24 1009.11 1008.90 1009.35 1010.65 1010.65 1010.53 1010.84 1011.46 1011.79 1012.12
1023.74 1023.39 1022.91 1022.60 1022.01 1021.56 1020.73 1020.09 1019.73 1019.18 1018.46 1017.68 1016.94 1016.43 1015.88 1015.52 1015.09 1014.65 1014.47 1014.05 1013.72 1014.16 1013.94 1012.84 1010.49 1009.31 1008.30 1007.82 1007.48 1007.19 1007.03 1006.94 1007.16 1007.41 1007.89 1007.84 1007.56 1007.66 1009.14 1009.91 1009.96 1008.82 1008.64 1008.78 1009.43 1009.82 1010.24 1010.84 1011.07 1011.18 1011.63 1012.35 1012.77 1013.30
1023.08 1022.88 1022.49 1022.24 1021.60 1021.08 1020.33 1019.76 1019.31 1018.67 1017.97 1017.27 1016.41 1015.75 1015.13 1014.92 1015.20 1014.90 1014.40 1013.78 1013.41 1013.98 1014.00 1013.13 1011.77 1010.03 1009.17 1008.73 1008.63 1008.45 1008.14 1008.34 1008.46 1008.81 1009.20 1009.06 1008.79 1008.90 1010.48 1010.83 1010.76 1010.44 1010.15 1010.10 1010.32 1010.49 1011.35 1011.59 1012.38 1012.47 1012.88 1013.77 1014.22 1014.96
1022.52 1022.19 1022.13 1021.68 1021.16 1020.69 1020.00 1019.42 1018.95 1018.21 1017.42 1016.66 1015.76 1015.02 1014.38 1014.02 1014.33 1014.24 1013.47 1013.11 1013.54 1014.03 1013.78 1013.41 1012.36 1011.20 1009.89 1010.06 1009.96 1009.43 1009.61 1009.34 1009.44 1009.89 1009.74 1010.16 1010.11 1010.66 1011.82 1011.67 1011.26 1011.12 1011.07 1011.27 1011.53 1011.77 1012.55 1013.05 1013.33 1013.94 1014.40 1015.01 1015.63 1016.42
1022.09 1021.76 1021.57 1021.23 1020.79 1020.37 1019.68 1019.19 1018.71 1017.85 1016.96 1015.96 1014.94 1014.22 1014.24 1014.14 1014.14 1013.55 1012.80 1012.79 1013.21 1014.14 1014.05 1013.56 1013.14 1012.15 1010.72 1010.96 1010.81 1010.32 1010.42 1010.93 1010.74 1011.00 1011.09 1011.03 1011.85 1012.15 1012.37 1012.20 1012.14 1012.03 1012.24 1012.85 1013.16 1013.76 1014.18 1014.70 1015.32 1015.68 1015.90 1016.42 1016.89 1017.59
1021.46 1021.15 1021.14 1021.14 1020.64 1020.01 1019.46 1019.01 1018.33 1017.46 1016.55 1015.46 1014.80 1014.64 1014.82 1014.01 1013.33 1012.87 1012.73 1013.15 1013.42 1013.73 1013.89 1013.87 1013.13 1012.51 1011.90 1011.88 1011.72 1011.66 1011.49 1011.83 1011.85 1011.75 1011.50 1012.67 1013.28 1013.05 1012.74 1012.76 1012.71 1013.01 1013.23 1013.52 1014.46 1015.57 1015.92 1016.27 1016.64 1017.00 1017.34 1017.66 1018.00 1018.45
1021.15 1020.86 1020.57 1020.50 1020.13 1019.66 1019.26 1018.67 1018.08 1017.18 1016.41 1016.37 1016.38 1016.05 1014.91 1013.84 1013.67 1013.64 1013.69 1013.86 1013.78 1014.04 1013.75 1013.52 1013.25 1013.04 1012.14 1012.38 1012.39 1012.25 1012.40 1012.15 1012.47 1012.26 1012.43 1013.88 1014.09 1013.64 1013.39 1013.43 1013.82 1014.22 1014.63 1015.33 1015.81 1016.62 1016.99 1017.29 1017.72 1017.97 1018.21 1018.47 1018.81 1019.11
1020.66 1020.58 1020.33 1020.17 1019.69 1019.26 1018.88 1018.74 1018.06 1017.72 1017.88 1017.78 1017.43 1016.81 1015.84 1014.83 1014.42 1014.52 1014.63 1014.41 1014.26 1014.53 1014.07 1013.81 1013.60 1013.10 1012.51 1012.17 1012.50 1012.17 1012.25 1012.24 1012.39 1012.16 1013.01 1014.18 1014.19 1013.87 1013.82 1014.29 1014.89 1015.23 1015.69 1016.39 1016.88 1017.37 1017.85 1018.15 1018.47 1018.70 1018.94 1019.15 1019.36 1019.62
1020.09 1020.12 1019.93 1019.71 1019.39 1019.05 1018.60 1018.30 1017.89 1017.54 1017.28 1017.13 1017.02 1016.53 1015.87 1015.15 1015.03 1014.96 1015.16 1014.82 1014.84 1014.66 1014.39 1014.13 1014.09 1013.51 1012.76 1012.44 1012.56 1012.49 1012.33 1012.45 1012.07 1012.94 1013.97 1014.44 1014.26 1014.12 1014.31 1014.85 1015.67 1016.02 1016.46 1017.13 1017.75 1018.16 1018.66 1019.08 1019.34 1019.49 1019.62 1019.71 1019.89 1020.20
1019.68 1019.44 1019.02 1018.83 1018.58 1018.38 1018.23 1017.73 1017.49 1017.37 1017.58 1017.13 1016.67 1016.25 1015.62 1014.99 1015.00 1015.13 1015.17 1015.02 1014.73 1014.53 1014.37 1014.11 1014.18 1013.87 1013.34 1013.09 1012.77 1012.69 1012.33 1012.26 1012.86 1013.83 1014.22 1014.39 1014.30 1014.42 1014.66 1015.31 1015.97 1016.90 1017.39 1017.91 1018.47 1018.81 1019.39 1019.78 1020.06 1020.23 1020.26 1020.33 1020.52 1020.75
1019.03 1018.64 1018.19 1017.86 1017.32 1017.39 1017.67 1017.33 1017.21 1017.39 1017.40 1017.01 1016.43 1015.93 1015.09 1014.69 1014.73 1014.89 1014.95 1014.86 1014.48 1014.49 1014.41 1014.26 1014.10 1013.93 1013.64 1013.30 1012.80 1012.71 1012.70 1013.34 1013.73 1014.00 1014.22 1014.30 1014.57 1014.72 1015.33 1015.96 1016.69 1017.49 1018.14 1018.68 1019.13 1019.50 1019.83 1020.15 1020.45 1020.71 1020.84 1020.92 1021.04 1021.33
1018.49 1018.06 1017.31 1017.29 1017.28 1017.03 1017.37 1017.09 1016.80 1016.87 1016.74 1016.25 1015.78 1015.32 1014.52 1014.47 1014.70 1014.83 1014.77 1014.79 1014.52 1014.52 1014.33 1014.28 1014.17 1014.03 1013.96 1013.78 1013.51 1013.74 1013.74 1014.18 1014.13 1014.11 1014.39 1014.85 1015.04 1015.40 1015.91 1016.50 1017.25 1017.93 1018.58 1019.16 1019.59 1019.93 1020.29 1020.74 1021.07 1021.30 1021.39 1021.47 1021.56 1021.66
1018.16 1017.75 1017.12 1017.06 1017.04 1017.01 1017.05 1017.15 1016.63 1016.55 1016.05 1015.63 1015.18 1014.61 1014.36 1014.32 1014.21 1014.07 1014.09 1014.32 1014.36 1014.63 1014.61 1014.41 1014.46 1014.41 1014.32 1014.09 1014.40 1014.40 1014.33 1014.27 1014.19 1014.48 1014.79 1014.94 1015.31 1015.88 1016.32 1016.89 1017.65 1018.33 1019.00 1019.51 1019.91 1020.41 1020.79 1021.10 1021.34 1021.57 1021.74 1021.87 1021.92 1021.95
1017.68 1017.35 1016.78 1016.86 1016.98 1016.98 1016.72 1016.65 1016.36 1016.03 1015.73 1015.09 1014.76 1013.89 1013.53 1013.23 1013.49 1013.65 1013.69 1014.01 1014.37 1014.43 1014.60 1014.97 1015.16 1014.95 1015.04 1015.03 1014.90 1014.80 1014.74 1014.70 1014.66 1014.83 1015.06 1015.24 1015.61 1016.01 1016.38 1017.08 1017.83 1018.42 1019.12 1019.71 1020.16 1020.70 1021.02 1021.32 1021.49 1021.65 1021.82 1022.10 1022.18 1022.25
1017.37 1017.11 1016.91 1016.78 1017.03 1017.23 1016.83 1016.15 1015.99 1015.85 1015.14 1014.47 1013.66 1013.23 1012.87 1012.83 1012.87 1012.91 1013.26 1013.44 1013.79 1013.96 1014.72 1015.13 1015.42 1015.49 1015.54 1015.54 1015.45 1015.36 1015.29 1015.36 1015.45 1015.30 1015.35 1015.51 1015.66 1016.15 1016.65 1017.16 1017.77 1018.55 1019.24 1019.84 1020.41 1020.88 1021.18 1021.38 1021.60 1021.67 1021.92 1022.14 1022.26 1022.45
1017.08 1017.06 1016.93 1016.83 1017.00 1017.06 1016.70 1015.92 1015.60 1015.72 1015.29 1014.36 1013.60 1013.16 1012.91 1012.78 1012.87 1013.11 1013.39 1013.62 1014.07 1014.64 1015.17 1015.63 1015.96 1016.08 1015.99 1015.89 1015.77 1015.68 1015.49 1015.34 1015.34 1015.51 1015.73 1015.76 1015.86 1016.17 1016.59 1017.09 1017.77 1018.47 1019.20 1019.91 1020.56 1021.00 1021.29 1021.48 1021.65 1021.76 1021.84 1021.99 1022.21 1022.42
1016.99 1016.67 1016.64 1016.99 1016.95 1016.86 1016.76 1016.12 1015.60 1015.14 1014.91 1014.55 1013.72 1013.46 1013.00 1012.59 1013.09 1013.55 1013.96 1014.13 1014.88 1015.35 1015.63 1015.92 1016.00 1015.94 1015.87 1015.74 1015.58 1015.46 1015.29 1014.94 1014.92 1014.97 1015.19 1015.72 1015.90 1015.97 1016.48 1017.06 1017.63 1018.35 1018.99 1019.59 1020.13 1020.74 1021.09 1021.31 1021.50 1021.63 1021.78 1021.95 1022.22 1022.54
1016.57 1016.50 1016.73 1016.71 1016.70 1016.71 1016.72 1015.95 1015.68 1015.08 1014.96 1014.37 1013.87 1013.24 1013.05 1012.93 1013.24 1013.56 1013.96 1014.75 1015.21 1015.28 1015.44 1015.67 1015.65 1015.57 1015.48 1015.41 1015.14 1014.98 1014.93 1014.69 1014.28 1014.40 1014.83 1015.02 1015.61 1016.03 1016.34 1016.71 1017.29 1017.88 1018.48 1019.02 1019.48 1020.00 1020.57 1020.90 1021.20 1021.46 1021.62 1021.76 1021.93 1022.45
1016.52 1016.56 1016.51 1016.45 1016.51 1016.52 1016.31 1015.46 1015.32 1014.79 1014.64 1014.06 1013.54 1013.16 1012.93 1012.90 1013.23 1013.40 1014.70 1015.09 1015.09 1014.94 1015.06 1015.42 1015.55 1015.56 1015.62 1015.42 1015.04 1014.87 1014.77 1014.49 1014.33 1014.23 1014.41 1014.60 1014.87 1015.08 1015.57 1016.13 1016.49 1017.13 1017.94 1018.60 1019.05 1019.52 1020.08 1020.61 1020.99 1021.29 1021.51 1021.68 1021.70 1022.04
1016.25 1016.30 1015.95 1016.09 1016.25 1016.05 1015.42 1015.17 1014.91 1014.76 1014.25 1013.88 1013.44 1012.87 1012.96 1013.28 1013.47 1014.13 1015.01 1015.35 1015.33 1015.16 1015.39 1015.74 1015.86 1015.98 1016.08 1016.00 1015.94 1015.51 1015.43 1015.31 1015.16 1014.77 1014.53 1014.67 1014.82 1014.88 1015.08 1015.41 1015.84 1016.40 1017.07 1017.88 1018.64 1019.30 1019.89 1020.39 1020.79 1021.15 1021.44 1021.61 1021.77 1022.00
1016.28 1016.15 1015.91 1015.67 1015.56 1015.45 1015.03 1014.46 1014.12 1014.19 1013.60 1013.26 1013.05 1013.20 1013.24 1013.65 1014.14 1014.49 1015.32 1015.60 1015.56 1015.81 1016.06 1016.21 1016.40 1016.53 1016.63 1016.70 1016.62 1016.38 1016.17 1016.16 1015.99 1015.45 1014.67 1014.34 1014.30 1014.65 1015.17 1015.54 1015.94 1016.39 1016.95 1017.79 1018.56 1019.02 1019.60 1020.13 1020.56 1020.92 1021.20 1021.38 1021.66 1021.98
1015.65 1015.13 1014.96 1014.50 1014.48 1014.45 1013.93 1013.61 1013.16 1013.03 1012.98 1013.26 1013.30 1013.24 1012.86 1013.38 1014.22 1015.25 1015.65 1015.84 1015.91 1016.13 1016.57 1016.84 1016.96 1016.93 1016.83 1016.85 1016.88 1016.68 1016.40 1016.34 1016.22 1015.55 1014.82 1014.83 1014.91 1014.70 1014.92 1015.59 1016.26 1016.87 1016.93 1017.14 1017.80 1018.46 1018.99 1019.52 1019.99 1020.35 1020.70 1021.06 1021.40 1021.76
1015.22 1014.46 1013.72 1013.17 1013.11 1013.01 1013.01 1012.63 1012.47 1012.64 1012.77 1012.86 1012.95 1012.91 1013.06 1013.84 1015.12 1015.97 1016.07 1016.16 1016.38 1016.61 1016.64 1016.84 1016.88 1016.93 1016.94 1016.89 1016.88 1016.81 1016.57 1016.14 1015.97 1015.48 1015.17 1014.82 1014.48 1014.60 1014.30 1014.60 1015.28 1015.47 1016.13 1016.67 1017.16 1017.66 1018.20 1018.77 1019.25 1019.72 1020.20 1020.68 1021.03 1021.35
1014.05 1013.21 1012.91 1012.64 1012.46 1012.25 1012.37 1012.12 1012.32 1012.91 1013.11 1013.11 1013.16 1013.60 1014.09 1014.99 1015.91 1016.35 1016.26 1016.33 1016.64 1016.75 1016.89 1017.04 1016.93 1016.87 1016.85 1017.07 1017.19 1017.00 1016.61 1016.27 1015.67 1015.15 1014.70 1014.24 1013.97 1014.31 1014.07 1014.03 1014.09 1014.71 1015.31 1015.91 1016.44 1017.07 1017.62 1018.11 1018.62 1019.12 1019.64 1020.17 1020.66 1021.02
1013.30 1012.84 1012.73 1012.52 1012.20 1012.02 1012.38 1012.37 1012.63 1012.78 1013.05 1013.33 1013.80 1014.67 1015.32 1015.87 1016.34 1016.68 1016.84 1017.06 1017.09 1017.27 1017.64 1017.57 1017.46 1017.35 1017.48 1017.58 1017.62 1017.47 1017.22 1016.71 1015.93 1015.70 1015.76 1015.61 1015.38 1015.37 1015.00 1014.54 1014.32 1014.53 1015.11 1015.63 1016.07 1016.50 1017.02 1017.55 1018.12 1018.61 1019.05 1019.56 1020.09 1020.52
1012.70 1012.40 1012.64 1012.26 1012.12 1012.68 1012.88 1012.50 1012.62 1012.71 1013.14 1013.53 1014.18 1015.29 1016.03 1016.60 1017.30 1017.16 1017.49 1017.75 1018.16 1018.30 1018.14 1017.98 1018.09 1018.04 1018.16 1018.23 1018.36 1018.24 1018.06 1017.89 1017.58 1017.32 1016.90 1017.02 1017.18 1016.84 1016.24 1015.63 1015.27 1014.96 1014.88 1015.41 1016.00 1016.59 1016.94 1017.50 1018.10 1018.53 1019.04 1019.61 1020.02 1020.48
1011.98 1012.04 1012.28 1012.45 1013.03 1013.04 1012.91 1012.71 1012.82 1013.11 1013.42 1014.03 1014.48 1015.38 1016.22 1016.94 1017.68 1018.18 1018.27 1018.35 1018.37 1018.38 1018.46 1018.50 1018.53 1018.68 1018.78 1018.86 1018.83 1018.71 1018.53 1018.43 1018.29 1018.08 1018.05 1017.92 1017.63 1017.23 1016.85 1016.26 1015.63 1015.24 1015.19 1015.30 1015.74 1016.36 1016.91 1017.45 1017.92 1018.40 1018.90 1019.41 1019.85 1020.25
1012.05 1012.15 1012.28 1012.93 1013.49 1013.48 1013.38 1013.45 1013.52 1013.84 1014.16 1014.65 1015.21 1015.69 1016.33 1016.97 1017.94 1018.61 1018.79 1018.70 1018.68 1018.89 1019.13 1019.03 1019.03 1019.10 1019.02 1019.02 1018.97 1018.97 1018.96 1018.75 1018.54 1018.35 1018.17 1018.00 1017.85 1017.56 1017.19 1016.65 1015.92 1015.42 1015.16 1015.30 1015.35 1015.87 1016.49 1017.05 1017.62 1018.10 1018.57 1018.98 1019.41 1019.87
1011.97 1012.25 1012.62 1013.24 1013.61 1013.85 1014.15 1014.18 1014.15 1014.49 1014.74 1015.41 1015.69 1016.02 1016.54 1017.11 1017.98 1018.72 1018.92 1018.84 1018.95 1019.10 1019.26 1019.32 1019.25 1019.16 1019.05 1019.04 1019.09 1019.05 1018.95 1018.82 1018.57 1018.40 1018.21 1017.99 1017.68 1017.31 1016.93 1016.53 1015.95 1015.50 1015.25 1015.06 1015.20 1015.58 1015.97 1016.44 1017.02 1017.55 1018.10 1018.61 1019.12 1019.59
Wind_Speed
13 14 15 16 17 18 19 20 21 22 22 23 22 22 21 21 20 10 7 4 2 3 8 4 4 5 7 7 7 12 7 9 4 4 3 3 4 4 3 4 6 3 4 3 5 4 3 6 7 4 5 5 12 14
13 14 15 16 16 18 19 20 21 21 21 22 23 22 22 21 19 13 3 4 2 3 7 5 9 9 6 5 4 5 3 3 3 4 4 3 4 3 1 4 1 4 5 5 3 5 3 12 17 5 7 11 6 12
12 14 15 16 17 18 19 19 21 21 22 22 22 22 22 21 18 11 4 4 4 2 6 4 5 6 5 7 4 3 5 4 3 4 2 2 6 3 3 4 1 7 11 8 9 5 16 14 14 13 15 14 14 14
11 13 15 16 17 18 19 19 20 22 22 22 21 21 22 20 18 13 2 2 1 2 3 7 6 8 9 9 8 4 8 3 2 4 3 4 4 5 3 3 6 1 4 12 15 13 17 14 13 14 15 16 17 16
12 12 14 15 16 18 19 19 20 21 22 22 22 22 21 20 19 9 3 3 1 3 2 6 11 6 8 9 11 10 12 6 4 5 4 3 3 4 4 4 11 5 3 4 3 6 13 5 10 13 15 12 11 16
12 13 13 15 16 18 19 19 20 22 23 24 23 22 21 18 16 3 4 3 2 2 2 4 5 7 11 10 10 10 8 5 4 3 2 3 4 4 5 4 9 14 12 7 7 13 14 11 13 14 15 14 13 14
11 13 13 15 16 18 19 19 22 23 24 25 23 21 19 14 2 2 4 5 3 2 0 5 5 5 6 5 5 5 6 3 3 2 5 3 5 6 4 4 4 8 11 11 10 11 9 7 7 9 16 17 19 15
12 11 13 15 16 17 18 21 23 24 25 26 24 20 17 12 4 3 4 8 2 1 0 1 5 5 4 4 5 3 5 5 6 1 4 4 4 4 5 3 6 8 9 11 9 9 7 10 15 15 13 13 14 11
11 11 13 15 16 18 18 21 23 24 26 27 24 15 3 3 2 4 7 6 2 3 1 3 2 4 4 4 2 5 3 5 3 3 4 5 4 5 4 5 5 5 6 9 14 15 15 15 13 12 12 10 11 9
11 12 13 15 16 17 18 20 22 23 27 25 4 4 3 3 11 7 5 3 3 2 1 1 2 3 3 3 4 3 3 1 3 3 3 5 4 3 4 5 8 10 8 7 12 9 10 10 10 10 11 8 8 7
12 12 12 14 15 16 17 19 20 22 10 5 4 3 4 13 3 2 2 2 1 3 2 3 1 2 3 2 2 1 2 1 3 5 5 3 3 2 5 8 13 14 15 14 15 11 10 9 8 8 8 8 7 6
11 13 13 15 16 16 17 18 17 6 2 4 5 5 4 3 3 2 3 4 4 1 5 2 4 2 4 2 3 3 1 2 1 1 5 3 2 3 9 10 12 13 14 14 13 13 11 11 8 7 5 5 5 5
11 13 15 16 17 17 17 17 15 12 9 2 2 3 2 3 5 0 1 1 3 3 3 3 4 2 5 4 1 2 3 3 1 5 2 2 3 5 7 11 12 12 15 14 12 12 11 10 8 6 5 5 6 6
11 13 16 17 18 17 17 16 12 7 2 2 2 6 2 1 2 2 3 2 2 1 4 3 3 1 2 2 2 1 3 3 3 2 2 2 4 6 8 10 14 12 13 12 10 9 9 7 6 6 5 6 5 5
11 14 16 19 13 11 13 9 8 1 1 3 0 3 2 2 2 2 2 2 2 0 2 4 3 1 3 2 1 2 0 3 1 2 3 1 4 10 10 11 13 11 9 8 7 7 7 7 5 5 5 5 6 5
12 15 4 8 6 2 6 7 2 3 2 3 3 3 3 1 1 2 3 4 2 1 2 1 2 1 2 1 2 3 3 1 2 3 3 6 8 10 9 11 11 10 10 8 7 7 7 7 5 4 5 5 5 4
8 4 7 4 4 8 9 1 1 3 3 4 4 4 4 3 4 3 3 2 3 2 1 1 1 1 2 3 2 2 1 1 4 5 4 6 10 9 8 11 11 11 10 9 9 8 7 6 5 5 6 4 3 4
3 5 8 2 4 4 2 2 2 2 5 5 2 4 3 4 3 2 2 3 3 2 2 2 1 3 1 2 0 1 3 3 5 3 3 6 7 8 9 11 11 11 10 8 9 7 6 5 4 3 4 4 3 4
4 4 4 4 3 0 2 2 2 3 5 3 4 3 2 2 1 2 2 4 2 3 5 2 2 1 1 1 2 3 2 3 5 3 4 5 9 9 8 9 11 11 10 9 8 4 4 6 4 3 4 3 3 2
6 7 6 2 2 0 2 3 2 2 3 3 3 3 2 2 3 2 3 3 3 3 4 3 1 0 1 1 1 2 2 4 3 3 3 4 5 7 8 9 7 10 9 9 7 7 5 4 4 3 3 4 3 2
1 3 2 1 1 0 2 2 2 3 3 3 3 3 3 1 4 3 2 2 4 2 2 1 2 3 4 4 4 4 4 4 2 5 7 4 4 6 6 7 9 7 7 7 7 6 6 4 3 3 3 4 4 4
2 4 1 2 1 0 3 4 3 3 1 4 4 2 2 1 3 2 3 4 2 1 3 2 1 1 1 0 3 2 3 4 6 5 4 7 4 4 5 8 8 8 7 7 7 7 6 6 4 3 3 0 3 7
1 2 2 2 1 2 7 1 2 2 2 3 3 2 3 2 3 3 4 1 1 1 2 2 3 1 3 4 2 5 8 7 6 3 5 6 4 5 5 7 7 9 7 5 7 7 7 6 5 4 3 0 3 6
1 3 3 4 4 3 2 2 1 2 3 2 3 2 3 2 3 3 3 2 1 1 3 4 3 3 4 5 5 5 7 5 4 4 3 2 4 4 5 6 7 7 8 8 8 7 7 6 6 5 4 3 4 4
3 4 4 2 2 2 3 3 4 3 4 6 2 2 2 3 2 2 3 1 1 2 3 3 4 3 3 2 2 3 4 4 4 4 4 2 2 4 4 4 5 7 8 9 8 9 8 7 7 7 6 5 5 5
2 4 6 5 4 4 4 3 3 2 2 2 1 2 3 4 3 3 2 2 2 2 3 3 3 2 3 2 3 3 3 1 3 3 3 4 4 3 9 9 7 3 5 8 10 10 10 9 9 9 8 8 7 6
3 5 5 5 4 3 2 3 3 1 2 1 1 2 1 3 3 0 0 1 2 1 3 3 3 2 0 2 3 3 4 5 3 5 6 7 5 3 8 11 10 8 9 10 10 10 11 10 9 11 9 8 9 9
5 3 1 2 2 3 3 2 2 2 1 3 2 4 3 3 2 2 2 1 3 4 4 4 2 2 1 3 3 4 4 5 7 6 6 5 3 4 3 4 7 11 10 11 11 9 8 8 9 9 11 10 7 7
3 3 2 4 3 2 3 2 2 2 3 1 2 2 3 2 2 1 3 3 3 5 4 4 4 4 4 3 4 6 6 7 5 4 6 4 6 6 10 7 4 9 8 8 8 10 13 12 10 9 9 7 6 9
4 3 2 3 2 3 2 1 2 2 2 3 4 4 3 3 4 3 4 4 4 3 1 2 3 4 5 6 5 6 4 6 7 5 3 3 3 7 7 7 5 2 6 8 8 7 6 8 4 4 7 6 7 6
1 0 3 2 2 1 2 1 3 2 3 3 3 4 3 4 2 3 4 1 3 4 4 3 3 4 3 3 3 4 3 3 7 8 5 4 5 5 7 7 6 4 3 8 9 9 8 7 7 10 11 11 11 9
2 4 2 3 1 1 3 1 2 1 2 2 1 3 3 2 2 2 3 2 4 3 3 1 1 2 2 2 2 2 3 4 4 3 7 5 5 7 7 7 6 4 2 6 10 11 12 11 9 10 11 14 13 12
3 4 4 4 2 2 1 1 1 2 2 2 1 2 1 2 2 2 0 2 3 2 1 1 2 3 2 3 3 2 3 4 5 4 5 5 8 7 6 5 4 5 5 5 8 10 13 14 12 11 12 12 11 8
Wind_Direction
316 319 325 329 330 331 333 332 335 335 335 335 338 339 337 339 341 349 275 267 325 290 278 253 308 299 327 353 349 309 327 12 21 37 63 56 41 69 98 81 108 114 100 121 117 113 195 331 40 116 193 46 105 101
309 316 321 321 325 328 331 331 331 330 328 331 333 336 335 336 339 351 310 297 220 214 255 265 275 250 263 276 279 301 253 300 37 31 355 27 39 81 200 93 121 128 190 136 138 100 272 57 107 71 87 87 33 85
311 316 319 322 324 325 324 327 327 326 327 328 330 330 331 330 333 341 287 281 344 316 307 0 300 299 343 336 230 360 306 315 47 196 76 5 74 34 51 7 40 39 89 106 94 61 77 74 63 71 72 78 79 81
308 313 317 322 322 322 321 325 326 325 324 324 327 325 325 324 323 328 263 284 174 285 301 287 332 333 304 337 330 220 263 353 50 72 38 28 70 10 45 86 67 311 84 95 105 103 74 56 74 87 80 79 80 77
306 313 314 316 317 320 322 324 323 320 319 320 323 321 320 322 317 311 211 262 198 124 277 287 310 282 332 348 339 343 9 14 31 52 65 17 39 70 9 49 35 13 53 102 94 85 107 102 91 91 85 83 86 90
303 307 314 311 318 320 322 321 321 318 318 318 319 316 316 316 321 356 12 282 45 57 301 317 286 335 340 348 353 355 360 15 37 77 6 29 331 87 58 59 352 41 49 65 97 100 95 92 75 85 89 80 78 82
295 303 308 310 316 316 320 323 323 321 317 314 313 309 306 304 282 132 194 244 340 67 69 314 333 308 324 351 339 358 359 9 71 33 35 56 29 57 52 60 31 76 68 73 79 87 57 54 91 69 78 87 78 72
284 298 304 306 309 314 318 327 324 322 319 314 312 309 305 297 213 319 251 252 150 82 77 353 291 352 357 334 347 7 3 6 12 48 9 33 22 65 73 48 54 54 68 66 79 81 90 73 63 65 81 89 80 75
287 296 297 301 308 315 323 326 325 323 318 314 314 312 5 30 20 249 227 244 150 124 339 353 10 300 348 337 326 342 54 34 307 44 15 62 356 50 113 83 79 76 89 80 68 79 75 74 70 63 67 66 84 80
283 291 300 303 308 318 325 324 324 324 316 310 346 33 326 256 301 327 9 39 20 314 44 208 299 304 27 4 321 11 7 42 43 278 78 65 27 35 54 58 70 66 76 95 86 70 73 73 73 71 71 76 82 87
287 294 298 298 305 313 321 322 325 331 339 10 1 305 277 298 27 9 330 58 313 20 346 263 197 259 315 47 279 141 207 326 71 277 94 79 343 69 94 77 79 86 83 81 91 87 74 80 82 77 66 73 83 86
290 295 295 297 303 307 315 316 326 345 313 275 287 281 297 335 15 36 348 338 45 330 328 5 288 257 292 82 62 314 53 41 166 190 76 101 262 147 98 94 100 99 97 91 87 88 78 70 70 70 69 69 69 73
292 294 296 300 302 306 306 308 315 306 303 257 231 255 62 284 29 275 15 11 345 333 328 322 329 291 340 32 333 34 45 246 57 53 88 158 207 132 123 104 102 98 96 93 87 89 87 82 65 59 59 64 75 67
288 294 298 298 292 288 290 299 303 338 291 270 262 317 192 217 74 181 200 259 268 60 329 324 291 261 281 351 204 52 251 72 56 83 119 237 157 131 108 107 115 102 97 97 95 95 96 92 81 69 58 72 92 85
296 297 293 294 287 264 271 283 302 307 260 269 79 249 244 188 124 183 219 309 276 199 330 334 324 121 298 338 308 34 137 67 70 169 150 131 122 106 104 104 111 107 103 94 96 102 99 86 76 73 63 67 83 82
305 302 253 244 293 290 291 314 270 178 248 243 248 309 281 70 96 198 233 250 223 211 287 246 278 15 328 46 2 0 81 144 251 108 109 119 105 106 107 106 114 112 106 101 90 84 79 84 80 70 68 57 62 67
302 233 315 244 301 304 285 270 256 222 249 237 251 230 231 235 226 247 176 202 147 100 306 302 16 87 5 53 68 9 143 202 118 99 117 137 122 121 114 114 119 117 113 111 104 95 96 95 87 77 82 81 70 54
229 312 331 3 6 329 271 180 251 260 254 244 256 253 218 193 186 260 199 139 125 125 9 53 34 32 90 114 358 39 63 68 47 37 131 118 113 117 117 118 130 124 121 118 115 125 119 98 74 86 101 107 91 70
280 321 358 10 22 298 272 221 185 267 249 255 240 272 244 232 173 146 157 169 173 111 114 159 72 65 87 44 356 37 61 127 167 215 134 133 126 130 128 122 127 132 131 131 127 120 105 103 82 73 122 107 97 91
282 277 271 314 54 306 284 263 113 266 269 288 301 313 265 230 154 108 78 69 67 63 43 50 50 42 234 242 241 255 246 279 171 103 108 147 141 133 138 138 140 136 130 125 123 134 131 110 98 81 80 119 154 124
170 234 179 153 201 255 298 301 261 227 276 290 284 317 259 26 115 127 115 83 61 34 99 169 214 245 237 243 250 256 273 281 213 171 167 166 186 156 143 139 139 139 145 151 152 154 152 155 168 157 103 90 105 122
229 139 178 190 98 17 261 237 211 280 280 251 308 236 284 147 129 120 115 62 84 192 142 188 235 272 263 282 289 163 251 272 244 176 154 134 151 158 165 162 156 160 166 174 161 159 157 163 159 140 136 172 141 146
40 214 225 116 71 178 262 245 248 230 257 277 314 249 257 119 127 102 77 49 86 341 132 151 141 337 38 347 35 43 18 8 18 72 173 173 182 184 153 168 170 156 156 162 156 150 149 151 147 145 153 82 84 130
216 218 187 183 164 249 289 235 242 256 275 272 243 260 48 54 33 79 94 114 283 28 68 81 72 35 32 25 14 359 4 1 353 344 30 192 176 214 157 153 155 154 159 148 146 144 145 154 152 154 168 155 123 113
230 283 117 243 244 240 231 237 199 201 239 211 274 83 120 77 93 86 111 158 101 93 99 83 66 68 81 38 360 332 353 33 337 317 328 325 178 82 91 103 124 139 141 138 151 153 159 162 172 177 187 172 158 150
215 239 160 201 199 198 224 237 214 218 54 33 28 251 205 186 105 86 97 30 67 82 103 110 99 27 37 14 324 318 321 348 289 278 322 19 10 161 149 144 145 173 174 157 155 163 166 172 177 179 176 171 169 161
246 266 229 212 189 217 240 232 224 122 137 120 333 310 19 66 78 162 348 14 86 97 120 136 136 100 279 308 12 341 320 312 280 287 306 298 285 234 178 164 181 184 166 167 168 172 173 178 181 178 172 162 166 163
240 272 263 273 259 204 210 262 95 86 54 335 350 15 66 57 128 182 208 310 117 87 68 39 18 11 13 70 14 346 324 318 304 285 266 279 315 35 341 210 170 155 167 170 171 170 168 165 160 159 162 169 169 164
242 264 0 286 268 106 36 47 113 109 172 128 105 66 87 79 105 103 31 93 83 82 66 32 14 24 61 87 37 12 358 358 6 83 47 12 14 357 351 353 165 159 165 158 161 156 160 158 161 168 172 167 166 165
232 179 243 272 19 88 255 140 115 108 81 127 109 79 54 43 7 70 71 59 73 102 110 53 59 52 31 29 5 0 20 22 17 12 42 29 325 318 335 343 354 343 156 152 153 145 112 131 107 114 130 136 143 139
236 163 196 92 84 4 27 39 67 69 74 55 59 99 134 149 108 33 56 91 101 62 47 54 58 62 49 27 2 348 348 17 8 3 5 327 320 326 326 319 320 337 174 160 156 163 163 164 158 158 159 162 170 169
183 207 157 116 129 280 38 31 180 142 131 112 108 119 127 99 126 65 352 36 94 86 94 9 43 13 13 351 356 12 321 314 321 341 338 324 314 307 307 304 307 335 335 180 171 169 172 171 170 170 175 179 181 183
135 90 98 114 105 128 279 353 167 188 112 87 53 111 91 128 153 119 251 74 95 101 126 245 268 317 343 55 38 359 340 310 318 317 313 300 294 292 293 300 319 325 316 227 186 179 174 173 178 180 180 188 189 174